AXIOM-1 DEB (52319 NORAD) Tracking and Keplerian Element Data
This shows tracking and keplerian element data for the satellite.
Feedback or suggestion? Click here.
Element | Value |
Catalog | 52319 |
Name | AXIOM-1 DEB |
Epoch Orbit | 221 |
Epoch Day | 129.50829355 |
Epoch Year | 2022 |
RAAN | 163.1072 |
Inclination | 51.886 |
Eccentricity | 0.0064691 |
Argument of Perigee | 223.575 |
Mean Anonmoly | 136.0561 |
Mean Motion | 16.11065277 |
Decay Rate | 0.01189108 |
L1 | 1 52319U 22037B 22129.50829355 .01189108 11547-4 80863-3 0 9995 |
L2 | 2 52319 51.8860 163.1072 0064691 223.5750 136.0561 16.11065277 2213 |
Live tracking and technical data element details for AXIOM-1 DEB (NORAD 52319). AXIOM-1 DEB can be tracked NOW for your location showing map with azimuth and elevation plus other details from your city location.
Track the satellite on the map from your city or location and see movement details for azimuth, elevation, latitude, longitude, range, height, and movement on the map or in text.
IsCatalogInMostPopularTable: catalog: 52319, numindb: 1
Update: records affected: 1
GetName: 52319 AXIOM-1 DEB
Hit Count: updated at: Sat, 25 Jun 2022 04:35:14 GMT